カタログに戻る

STARLINK-37915

運用中通信SSO
NORAD 69722·PAYLOAD·🇺🇸 United States

打ち上げ Jun 28, 2026 から Vandenberg Space Force Base

Loading…

次のパス (今後24時間)

TLE

最新Source: CelesTrak SupGP

元期: Sep 14, 2026, 15:29 UTC

1 69722C 26147U   26257.64562500 -.00021303  00000+0 -66121-3 0  2572
2 69722  97.2834 294.1318 0001291 111.9961  89.8090 15.33453814    12

AllMySatでSTARLINK-37915をリアルタイム追跡

Download on the App Store